Location: Bailleul
(50.3375°N, 2.8513°E)
Time: 19:43:36
(UTC+00:00)

Lacrosse 5 rocket - Pass Details

Date: 19 April 2021
Orbit: 460 x 635 km, 57.0° (Epoch: 17 May)

Event Time Altitude Azimuth Distance (km) Brightness Sun altitude
Rises 19:18:18 0° 260° (W) 2,648 5.8 -5.1°
Reaches altitude 10° 19:20:31 10° 267° (W) 1,791 5.1 -5.4°
Maximum altitude 19:24:25 45° 341° (NNW) 770 2.5 -5.9°
Drops below altitude 10° 19:28:34 10° 55° (NE) 1,903 3.8 -6.5°
Sets 19:30:59 0° 62° (ENE) 2,834 4.6 -6.9°
